Weather History for KMCJ - October, 2013

Change the Weather History Date:

Friday, October 25, 2013

  Actual Average (KHOU) Record (KHOU)
Temperature  
Mean Temperature 68 °F 69 °F  
Max Temperature 77 °F 80 °F 91 °F (1950)
Min Temperature 59 °F 59 °F 39 °F (1980)
Degree Days  
Heating Degree Days 0 2  
Month to date heating degree days 15  
Since 1 July heating degree days 16  
Cooling Degree Days 3 6  
Month to date cooling degree days 198  
Year to date cooling degree days 3023  
Growing Degree Days 18 (Base 50)    
Moisture  
Dew Point 55 °F    
Average Humidity 66    
Maximum Humidity 88    
Minimum Humidity 44    
Precipitation  
Precipitation 0.00 in 0.20 in 9.25 in (1984)
Month to date precipitation 4.63  
Year to date precipitation 40.62  
Sea Level Pressure  
Sea Level Pressure 30.24 in    
Wind  
Wind Speed 5 mph (ENE)    
Max Wind Speed 15 mph    
Max Gust Speed 20 mph    
Visibility 10 miles    
Events      
T = Trace of Precipitation, MM = Missing Value Source: NWS Daily Summary

Daily Weather History Graph

Daily Weather History Graph

Search for Another Location

Airport or City:

Trip Planner

Search our weather history database for the weather conditions in past years. The results will help you decide how hot, cold, wet, or windy it might be!

Date:

Astronomy

Oct. 25, 2013 Rise Set
Actual Time 7:30 AM CDT 6:40 PM CDT
Civil Twilight 7:05 AM CDT 7:04 PM CDT
Nautical Twilight 6:37 AM CDT 7:32 PM CDT
Astronomical Twilight 6:09 AM CDT 8:00 PM CDT
Moon No Moon Rise 1:04 PM CDT (10/25)
Length of Visible Light 11h 59m
Length of Day
11h 10m
Waning Gibbous, 62% of the Moon is Illuminated
Oct 25
Waning Gibbous
Oct 26
Last Quarter
Nov 3
New
Nov 9
First Quarter
Nov 17
Full

Hourly Weather History & Observations

Time (CDT) Temp. Dew Point Humidity Pressure Visibility Wind Dir Wind Speed Gust Speed Precip Events Conditions
12:15 AM 68.0 °F 57.2 °F 68% 30.19 in 10.0 mi Calm Calm - N/A   Clear
12:35 AM 68.0 °F 57.2 °F 68% 30.19 in 10.0 mi Calm Calm - N/A   Clear
12:55 AM 68.0 °F 57.2 °F 68% 30.19 in 8.0 mi Calm Calm - N/A   Clear
1:15 AM 68.0 °F 59.0 °F 73% 30.20 in 10.0 mi Calm Calm - N/A   Clear
1:35 AM 66.2 °F 59.0 °F 78% 30.20 in 10.0 mi Calm Calm - N/A   Clear
1:55 AM 66.2 °F 59.0 °F 78% 30.20 in 10.0 mi Calm Calm - N/A   Clear
2:15 AM 66.2 °F 59.0 °F 78% 30.20 in 10.0 mi Calm Calm - N/A   Clear
2:35 AM 66.2 °F 59.0 °F 78% 30.20 in 10.0 mi Calm Calm - N/A   Clear
2:55 AM 66.2 °F 57.2 °F 73% 30.20 in 10.0 mi Calm Calm - N/A   Clear
3:15 AM 66.2 °F 59.0 °F 78% 30.20 in 10.0 mi NNW 3.5 mph - N/A   Clear
3:35 AM 66.2 °F 59.0 °F 78% 30.20 in 10.0 mi NNW 4.6 mph - N/A   Clear
3:55 AM 66.2 °F 57.2 °F 73% 30.20 in 10.0 mi NNW 5.8 mph - N/A   Clear
4:15 AM 64.4 °F 57.2 °F 77% 30.20 in 10.0 mi NW 3.5 mph - N/A   Clear
4:35 AM 64.4 °F 57.2 °F 77% 30.20 in 10.0 mi NNW 6.9 mph - N/A   Clear
4:55 AM 64.4 °F 57.2 °F 77% 30.21 in 10.0 mi NNW 6.9 mph - N/A   Clear
5:15 AM 64.4 °F 57.2 °F 77% 30.21 in 10.0 mi NNW 6.9 mph - N/A   Clear
5:35 AM 64.4 °F 55.4 °F 73% 30.23 in 10.0 mi North 8.1 mph - N/A   Clear
5:55 AM 62.6 °F 55.4 °F 77% 30.24 in 9.0 mi North 6.9 mph - N/A   Clear
6:15 AM 62.6 °F 55.4 °F 77% 30.24 in 10.0 mi NNE 6.9 mph - N/A   Clear
6:35 AM 62.6 °F 55.4 °F 77% 30.25 in 10.0 mi NNE 8.1 mph - N/A   Clear
6:55 AM 62.6 °F 55.4 °F 77% 30.26 in 10.0 mi NE 5.8 mph - N/A   Clear
7:15 AM 60.8 °F 55.4 °F 82% 30.26 in 10.0 mi NE 8.1 mph - N/A   Clear
7:35 AM 59.0 °F 55.4 °F 88% 30.27 in 10.0 mi NE 8.1 mph - N/A   Clear
7:55 AM 59.0 °F 55.4 °F 88% 30.27 in 10.0 mi NE 10.4 mph - N/A   Clear
8:15 AM 59.0 °F 55.4 °F 88% 30.28 in 10.0 mi NE 9.2 mph - N/A   Clear
8:35 AM 60.8 °F 53.6 °F 77% 30.28 in 10.0 mi ENE 11.5 mph - N/A   Clear
8:55 AM 60.8 °F 53.6 °F 77% 30.29 in 10.0 mi ENE 11.5 mph - N/A   Clear
9:15 AM 62.6 °F 53.6 °F 72% 30.30 in 10.0 mi NE 8.1 mph - N/A   Clear
9:35 AM 62.6 °F 53.6 °F 72% 30.31 in 10.0 mi NE 15.0 mph - N/A   Clear
9:55 AM 62.6 °F 53.6 °F 72% 30.31 in 10.0 mi NE 13.8 mph - N/A   Clear
10:15 AM 62.6 °F 53.6 °F 72% 30.32 in 10.0 mi NE 15.0 mph 19.6 mph N/A   Clear
10:35 AM 64.4 °F 53.6 °F 68% 30.32 in 10.0 mi ENE 12.7 mph - N/A   Clear
11:35 AM 68.0 °F 53.6 °F 60% 30.32 in 10.0 mi ENE 8.1 mph - N/A   Clear
11:55 AM 68.0 °F 53.6 °F 60% 30.31 in 10.0 mi NE 9.2 mph - N/A   Clear
12:15 PM 68.0 °F 53.6 °F 60% 30.31 in 10.0 mi NE 10.4 mph - N/A   Clear
12:35 PM 71.6 °F 53.6 °F 53% 30.30 in 10.0 mi East 11.5 mph - N/A   Clear
12:55 PM 71.6 °F 53.6 °F 53% 30.29 in 10.0 mi East 10.4 mph - N/A   Clear
1:15 PM 73.4 °F 53.6 °F 50% 30.28 in 10.0 mi NE 8.1 mph - N/A   Clear
1:35 PM 73.4 °F 53.6 °F 50% 30.27 in 10.0 mi East 9.2 mph - N/A   Clear
1:55 PM 75.2 °F 53.6 °F 47% 30.26 in 10.0 mi NE 9.2 mph - N/A   Clear
2:15 PM 75.2 °F 53.6 °F 47% 30.25 in 10.0 mi NE 8.1 mph - N/A   Clear
2:35 PM 75.2 °F 53.6 °F 47% 30.25 in 10.0 mi NE 9.2 mph - N/A   Clear
2:55 PM 77.0 °F 53.6 °F 44% 30.24 in 10.0 mi NE 8.1 mph - N/A   Clear
3:15 PM 77.0 °F 53.6 °F 44% 30.23 in 10.0 mi East 8.1 mph - N/A   Clear
3:35 PM 77.0 °F 53.6 °F 44% 30.23 in 10.0 mi ENE 8.1 mph - N/A   Clear
3:55 PM 75.2 °F 53.6 °F 47% 30.23 in 10.0 mi ENE 10.4 mph - N/A   Clear
4:15 PM 77.0 °F 53.6 °F 44% 30.23 in 10.0 mi ENE 5.8 mph - N/A   Clear
4:35 PM 77.0 °F 53.6 °F 44% 30.22 in 10.0 mi ESE 8.1 mph - N/A   Clear
4:55 PM 75.2 °F 53.6 °F 47% 30.22 in 10.0 mi East 9.2 mph - N/A   Clear
5:15 PM 75.2 °F 53.6 °F 47% 30.22 in 10.0 mi ESE 8.1 mph - N/A   Clear
5:35 PM 75.2 °F 53.6 °F 47% 30.22 in 10.0 mi East 8.1 mph - N/A   Clear
5:55 PM 73.4 °F 53.6 °F 50% 30.22 in 10.0 mi East 9.2 mph - N/A   Clear
6:15 PM 71.6 °F 53.6 °F 53% 30.22 in 10.0 mi East 6.9 mph - N/A   Clear
6:35 PM 71.6 °F 53.6 °F 53% 30.22 in 10.0 mi East 8.1 mph - N/A   Clear
6:55 PM 69.8 °F 53.6 °F 56% 30.22 in 10.0 mi East 6.9 mph - N/A   Clear
7:15 PM 69.8 °F 53.6 °F 56% 30.22 in 10.0 mi ESE 9.2 mph - N/A   Clear
7:35 PM 68.0 °F 57.2 °F 68% 30.23 in 10.0 mi East 5.8 mph - N/A   Clear
7:55 PM 68.0 °F 57.2 °F 68% 30.23 in 10.0 mi East 5.8 mph - N/A   Clear
8:15 PM 66.2 °F 57.2 °F 73% 30.23 in 10.0 mi East 5.8 mph - N/A   Clear
8:35 PM 66.2 °F 57.2 °F 73% 30.24 in 10.0 mi East 6.9 mph - N/A   Clear
8:55 PM 66.2 °F 55.4 °F 68% 30.25 in 10.0 mi East 9.2 mph - N/A   Clear
9:15 PM 66.2 °F 55.4 °F 68% 30.25 in 10.0 mi East 8.1 mph - N/A   Clear
9:35 PM 66.2 °F 53.6 °F 64% 30.25 in 10.0 mi East 8.1 mph - N/A   Clear
9:55 PM 66.2 °F 53.6 °F 64% 30.25 in 10.0 mi East 8.1 mph - N/A   Clear
10:15 PM 66.2 °F 53.6 °F 64% 30.25 in 10.0 mi East 9.2 mph - N/A   Clear
10:35 PM 64.4 °F 53.6 °F 68% 30.26 in 10.0 mi East 8.1 mph - N/A   Clear
10:55 PM 64.4 °F 53.6 °F 68% 30.25 in 10.0 mi East 5.8 mph - N/A   Clear
11:15 PM 64.4 °F 53.6 °F 68% 30.25 in 10.0 mi East 10.4 mph - N/A   Clear
11:35 PM 64.4 °F 53.6 °F 68% 30.24 in 10.0 mi East 11.5 mph - N/A   Clear
11:55 PM 64.4 °F 53.6 °F 68% 30.23 in 10.0 mi East 12.7 mph - N/A   Clear